Powrót do katalogu

CTC-1B

AktywnyŁącznośćSSO
NORAD 66681·PAYLOAD·🇺🇸 United States
Ta nazwa satelity nie została jeszcze potwierdzona przez oficjalne źródła.

Wystrzelony Nov 28, 2025 z Vandenberg Space Force Base

Loading…

Następne Przeloty (najbliższe 24 godziny)

TLE

ŚwieżeSource: Space-Track

Epoka: Sep 14, 2026, 10:27 UTC

1 66681U 25276R   26257.43576168  .00012795  00000-0  49244-3 0  9991
2 66681  97.4039 330.4680 0005903  71.3606 288.8273 15.26496997 44065

Śledź CTC-1B w czasie rzeczywistym z AllMySat

Download on the App Store